Terminal Aerodrome Forecast
Issued by NWS Wilmington, OH

Current Version | Previous Version | Graphics & Text | Print | Product List | Glossary On
Versions: 1 2 3 4 5 6 7 8 9 10 11 12 13 14 15 16 17 18 19 20 21 22 23 24 25 26 27
841
FTUS41 KILN 230520
TAFCVG
TAF
KCVG 230520Z 2306/2412 13003KT P6SM SCT200
     FM231400 VRB03KT P6SM FEW040 SCT250
     FM240400 05006KT P6SM BKN120=

USA.gov is the U.S. government's official web portal to all federal, state and local government web resources and services.